Regional Weather Roundup
Issued by NWS Newport/Morehead, NC

Home | Current Version | Previous Version | Text Only | Print | Product List | Glossary On
Versions: 1 2 3 4 5 6 7 8 9 10 11 12 13 14 15 16 17 18 19 20 21 22 23 24 25 26 27 28 29 30 31 32 33 34 35 36 37 38 39 40 41 42 43 44 45 46 47 48 49 50
000
ASUS42 KMHX 210222
RWRMHX
WEATHER ROUNDUP FOR EASTERN NORTH CAROLINA
NATIONAL WEATHER SERVICE NEWPORT/MOREHEAD CITY NC
1000 PM EDT MON OCT 20 2014

NOTE: "FAIR" INDICATES FEW OR NO CLOUDS BELOW 12,000 FEET
WITH NO SIGNIFICANT WEATHER AND/OR OBSTRUCTIONS TO VISIBILITY

NCZ015>017-031-032-045>047-102-103-210300-
NORTH COAST

CITY           SKY/WX    TMP DP  RH WIND       PRES   REMARKS
EDENTON        PTCLDY    62  57  86 S7        30.01F
ELIZABETH CITY PTCLDY    63  55  75 S7        30.02S
KITTY HAWK     CLEAR     63  58  84 CALM      30.01F
MANTEO         PTCLDY    64  58  83 S5        30.03S

$$

NCZ045>047-081-094-103-104-210300-
CENTRAL COAST

CITY           SKY/WX    TMP DP  RH WIND       PRES   REMARKS
FRISCO         PTCLDY    71  58  63 S12       30.03F
SWANQUARTER      N/A     64 N/A N/A S3        29.97F

$$

NCZ095-097-098-100-101-210300-
SOUTHERN COAST

CITY           SKY/WX    TMP DP  RH WIND       PRES   REMARKS
BEAUFORT       MOCLDY    71  59  65 S7        30.02S
CEDAR ISLAND     N/A     66 N/A N/A S6        30.06S
JACKSONVILLE   MOCLDY    61  58  90 CALM      30.01S
PINEY ISLAND   PTCLDY    68  57  68 SE6       30.02S
WILMINGTON     PTCLDY    60  57  89 NW3       30.01S


$$

NCZ011>013-027>030-043-044-078>080-089-090>093-098-210300-
COASTAL PLAIN

CITY           SKY/WX    TMP DP  RH WIND       PRES   REMARKS
AHOSKIE        PTCLDY    51  49  93 CALM      30.01S
CLINTON        PTCLDY    60  58  91 CALM      30.01F
ELIZABETHTOWN  MOCLDY    61  57  87 CALM      30.01S
GOLDSBORO      PTCLDY    61  60  97 SE3       29.99S
GREENVILLE     PTCLDY    61  55  82 S5        30.03S
HAVELOCK       MOCLDY    62  56  80 N5        30.03S
KENANSVILLE    PTCLDY    59  56  88 CALM      30.02S
KINSTON        PTCLDY    59  55  88 S5        30.01F
NEW BERN       PTCLDY    58  54  86 CALM      30.03S
RICHLANDS      PTCLDY    55  52  88 CALM      30.02S
ROCKY MOUNT    PTCLDY    52  50  93 CALM      30.00S
WASHINGTON     PTCLDY    61  55  81 S3        30.02S
WHITEVILLE     PTCLDY    59  56  92 CALM      30.01S

$$

AMZ130-135-150-152-154-156-158-170-250-252-270-ANZ085-086-088-633-658-670-210300-
MARINE OBSERVATIONS

STATION/POSITION TIME  TEMP    WIND        PRES    WAVE   SWELL
                       AIR SEA DIR/SP/G            HT/PER HT/PER
                 (UTC) (F)     (DEG/KT/KT) (MB)    (FT/S) (FT/S)
CHESAPEAKE LIGHT 0200   66     200/ 19/ 20 1016.3
64 E VA BEACH    0200   71 69  210/ 17/ 21 1016.0    4/ 4   2/12
DUCK             0100      69                N/A
2 E DUCK         0200                        N/A     2/11   2/11
10 NE DUCK       0100      71                N/A     3/12   2/12
OREGON INLET     0100      67                N/A
13E OREGON INLT  0200      73                N/A     3/13   2/13
HATTERAS CG      0100      70                N/A
DIAMOND BUOY     0200   72     180/ 14/ 19 1017.3    4/ 8   3/ 8
17 S OCRACOKE    0100          VRB 14/ 16  1016.9
CAPE LOOKOUT     0200   73     170/ 10/ 11 1016.4
BEAUFORT LAB     0100      70                N/A
30 SE NEW RIVER  0200   75 76  180/ 12/ 14 1015.9    2/ 9   2/ 9
5 SE WRIGHTSVLE  0200   70 73  200/  4/  6   N/A
225 S CAPE HAT   0123   74 80  130/ 12/ 16 1018.2    3/ 8   3/ 8
41 SE CHARLESTON 0200   76 80  270/  4/  6 1015.9    3/ 9   2/ 9

$$


USA.gov is the U.S. government's official web portal to all federal, state and local government web resources and services.